星链-30867 (STARLINK-30867 )

导读

STARLINK-30867是美国SpaceX公司于2023年11月8日发射的星链V2 Mini卫星,隶属于星链低轨通信星座。该卫星重约800公斤,搭载升级相控阵天线与E频段回传技术,显著提升通信带宽,采用氩霍尔推进器,机动效率大幅提高,旨在为全球尤其是偏远地区提供稳定的高速宽带互联网接入服务,设计使用寿命约5-7年,退役后会坠入大气层烧毁。

基本信息
目录编号:
58231
目录名称:
STARLINK-30867
国际标识:
2023-171B
轨道中心:
EARTH
卫星名称:
星链-30867
卫星全名:
星链-30867 (STARLINK-30867 )
卫星状态:
在轨 (已飞行1031 天)
发射日期:
2023-11-08 UTC
国别 :
美国 (US)
星等 :
--
轨道信息
数据来源 国际轨道数据
星历时间: 2026-09-04T15:05:43+0800
8小时前
查看轨道信息
半长轴: 6861.198km
偏心率: 0.0001824
轨道倾角: 43.007°
近地点辐角 266.863°
升交点赤经 356.254°
平近点角 93.202°
近地点: 481.809km
远地点: 484.313km
周期: 94.267分钟
每日圈数: 15.275763
详细信息
固有亮度:
5
最大亮度:
0.3
卫星平台:
Starlink v2.0 mini
覆盖范围:
全球
运营商:
太空探索技术公司
运营商所在国:
美国
制造商(研发单位):
太空探索技术公司
制造商所在国:
美国
使用方式:
暂无
卫星简介
星链(Starlink)计划是由太空探索技术公司(SpaceX)提出的一个巨型低轨卫星互联网星座项目,计划在2019年至2024年间在太空搭建由约1.2万颗卫星组成的“星链”网络,其中1584颗将部署在地球上空550千米处的近地轨道,并从2020年开始工作。该卫星仍在工作。
2D轨道图
3D轨道图
轨道高度分析图
轨道倾角分析图
轨道综合分析图
查看轨道综合分析图
交会数据列表
事件ID 空间交会对象 最接近时刻(TCA) 交会距离 交会风险概率(CRP) 交会风险指数(CRI) 操作
CDM_260906-042305-823106-698121
2026-09-06T
04:23:17+0000
0.541 km
远距离
1.157132E-4 高风险 0.76
CDM_260906-000705-823106-794221
2026-09-06T
00:07:19+0000
0.634 km
远距离
7.359553E-5 中风险 0.72
CDM_260906-160905-823106-698121
2026-09-06T
16:09:26+0000
0.864 km
远距离
2.860527E-5 中风险 0.64
CDM_260906-132705-823106-794221
2026-09-06T
13:27:38+0000
0.909 km
远距离
2.351517E-5 中风险 0.62
CDM_260905-223305-823106-794221
2026-09-05T
22:33:10+0000
1.282 km
极远距离
7.207567E-6 低风险 0.52
CDM_260906-024905-823106-698121
2026-09-06T
02:49:07+0000
1.419 km
极远距离
5.245491E-6 低风险 0.49
CDM_260906-115305-823106-794221
2026-09-06T
11:53:29+0000
1.731 km
极远距离
2.775739E-6 低风险 0.44
CDM_260906-143505-823106-698121
2026-09-06T
14:35:16+0000
2.289 km
极远距离
1.429091E-6 低风险 0.38
CDM_260906-055705-823106-698121
2026-09-06T
05:57:26+0000
2.420 km
极远距离
1.284114E-6 低风险 0.37
CDM_260906-014105-823106-794221
2026-09-06T
01:41:29+0000
2.591 km
极远距离
1.121293E-6 低风险 0.36